Regional Weather Roundup
Issued by NWS

Home | Current Version | Previous Version | Graphics & Text | Print | Product List | Glossary On
Versions: 1 2 3 4 5 6 7 8 9 10 11 12 13 14 15 16 17 18 19 20 21 22 23 24 25 26 27 28 29 30 31 32 33 34 35 36 37 38 39 40 41 42 43 44 45 46 47 48 49 50
000
ASUS43 KOAX 272210
RWRNE

WEATHER ROUNDUP FOR NEBRASKA
NATIONAL WEATHER SERVICE OMAHA NE
500 PM CDT TUE JUN 27 2017

NOTES: SATELLITE DATA IS BEING USED TO AUGMENT CLOUD COVER ABOVE
       12000 FEET.
       "FAIR" INDICATES FEW OR NO CLOUDS BELOW 12,000 FEET WITH NO
       SIGNIFICANT WEATHER AND/OR OBSTRUCTIONS TO VISIBILITY.

  * THESE STATIONS DO NOT REPORT WEATHER SUCH AS RAIN...SNOW OR FOG.

NEZ001>004-019>022-054>056-272300-
NEBRASKA PANHANDLE

CITY           SKY/WX    TMP DP  RH WIND       PRES   REMARKS
SCOTTSBLUFF    CLOUDY    85  51  31 CALM      29.71F
ALLIANCE       TSTM      72  51  47 SW30G44   29.75R
CHADRON        MOSUNNY   93  48  21 NW5       29.61F
GORDON         FAIR      88  56  33 S12G17    29.67R
KIMBALL        CLOUDY    77  54  44 SE3G17    29.77F
SIDNEY         CLOUDY    89  50  26 SE14      29.73F
$$

NEZ057>060-069>072-079>082-272300-
SOUTHWEST NEBRASKA

CITY           SKY/WX    TMP DP  RH WIND       PRES   REMARKS
NORTH PLATTE   CLOUDY    84  65  52 SE14      29.72F
IMPERIAL       SUNNY     93  55  27 S20G29    29.71F HX  91
LEXINGTON      SUNNY     87  64  46 SE16G26   29.74F
MCCOOK         SUNNY     99  54  22 S21G36    29.70F HX  97
OGALLALA       CLOUDY    90  58  34 SE16G23   29.72F
$$

NEZ005>010-023>029-035>040-094-272300-
NORTH CENTRAL NEBRASKA

CITY           SKY/WX    TMP DP  RH WIND       PRES   REMARKS
VALENTINE      PTSUNNY   89  56  32 S23G31    29.69F
AINSWORTH      MOSUNNY   83  63  50 S21G29    29.71F
BROKEN BOW     MOSUNNY   83  65  54 S25G35    29.75F
O`NEILL        SUNNY     84  64  51 S29G38    29.73F
ORD            MOSUNNY   83  62  49 S21G31    29.75F
THEDFORD       MOSUNNY   81  61  49 S21G26    29.77S
$$

NEZ041-046>049-061>064-073>077-083>087-272300-
SOUTH CENTRAL NEBRASKA

CITY           SKY/WX    TMP DP  RH WIND       PRES   REMARKS
GRAND ISLAND   MOSUNNY   83  67  58 S23G31    29.80F
AURORA         MOSUNNY   80  64  58 SE18G30   29.82F
HASTINGS       SUNNY     85  65  51 SE17G26   29.81F
HEBRON         SUNNY     84  67  57 S16G22    29.83F
HOLDREGE       SUNNY     88  65  45 SE18G28   29.75F HX  90
KEARNEY *      SUNNY     88  66  48 S21G29    29.77F HX  90
YORK           CLOUDY    81  66  61 SE18      29.83F
$$

NEZ011>018-030>034-042>045-272300-
NORTHEAST NEBRASKA

CITY           SKY/WX    TMP DP  RH WIND       PRES   REMARKS
NORFOLK        SUNNY     82  62  50 S17G30    29.80F
ALBION         CLOUDY    82  64  53 S24G30    29.80F
BLAIR          SUNNY     80  63  55 S21G26    29.87F
FREMONT        SUNNY     81  63  54 SE18G25   29.85F
TEKAMAH        SUNNY     83  60  45 SE20G31   29.84F
WAYNE          SUNNY     82  62  51 S25G31    29.81F
$$

NEZ050>053-065>068-078-088>093-272300-
SOUTHEAST NEBRASKA

CITY           SKY/WX    TMP DP  RH WIND       PRES   REMARKS
LINCOLN        PTSUNNY   83  66  56 S22G30    29.84F
OMAHA EPPLEY   MOSUNNY   81  62  52 S24G30    29.87F
BEATRICE       PTSUNNY   81  68  65 SE14G24   29.86F
FALLS CITY     MOSUNNY   80  65  59 SE17      29.91F
NEBRASKA CITY  MOSUNNY   77  67  71 S18G24    29.90F
PLATTSMOUTH    PTSUNNY   80  63  56 SE15G25   29.89F
$$

NEZ044-045-051>053-067-272300-
OMAHA AREA

CITY           SKY/WX    TMP DP  RH WIND       PRES   REMARKS
OMAHA EPPLEY   MOSUNNY   81  62  52 S24G30    29.87F
BLAIR          SUNNY     80  63  55 S21G26    29.87F
FREMONT        SUNNY     81  63  54 SE18G25   29.85F
MILLARD        PTSUNNY   81  66  59 SE18G26   29.87F
OFFUTT AFB     SUNNY     81  63  54 S18G28    29.87F
PLATTSMOUTH    PTSUNNY   80  63  56 SE15G25   29.89F
WAHOO          CLOUDY    82  62  49 S23G29    29.85F
$$




USA.gov is the U.S. government's official web portal to all federal, state and local government web resources and services.